| time (UTC) | temp F | wind direction | speed knots | gust knots | rain 1hr in | rain 24hr in | rain mn in | humidity % | barometer mb |
| 20260503044510 | 57 | 234 | 0.0 | 0.0 | 0.00 | 0.02 | 0.02 | 64 | 1009.7 |
| 20260503041537 | 58 | 148 | 0.0 | 0.0 | 0.00 | 0.02 | 0.02 | 63 | 1009.5 |
| 20260503040005 | 58 | 175 | 0.0 | 0.0 | 0.00 | 0.02 | 0.02 | 60 | 1009.2 |
| 20260503033044 | 59 | 266 | 0.9 | 3.5 | 0.01 | 0.02 | 0.02 | 59 | 1008.9 |
| 20260503031507 | 58 | 260 | 3.5 | 5.2 | 0.02 | 0.02 | 0.02 | 61 | 1008.7 |
| 20260503030045 | 59 | 244 | 0.0 | 4.3 | 0.02 | 0.02 | 0.02 | 60 | 1008.6 |
| 20260503024510 | 60 | 326 | 3.5 | 9.6 | 0.02 | 0.02 | 0.02 | 53 | 1008.3 |
| 20260503023041 | 61 | 231 | 5.2 | 10.4 | 0.01 | 0.01 | 0.01 | 52 | 1008.5 |
| 20260503021506 | 64 | 229 | 0.0 | 0.0 | 0.00 | 0.00 | 0.00 | 42 | 1007.9 |
| 20260503020043 | 64 | 23 | 0.0 | 0.0 | 0.00 | 0.00 | 0.00 | 40 | 1007.6 |
| 20260503014510 | 65 | 23 | 0.0 | 0.0 | 0.00 | 0.00 | 0.00 | 40 | 1007.7 |
| 20260503013044 | 65 | 33 | 0.0 | 0.9 | 0.00 | 0.00 | 0.00 | 39 | 1007.9 |
| 20260503011508 | 65 | 80 | 0.0 | 0.0 | 0.00 | 0.00 | 0.00 | 41 | 1007.9 |
| 20260503010047 | 65 | 346 | 3.5 | 6.1 | 0.00 | 0.00 | 0.00 | 42 | 1008.1 |
| 20260503004512 | 66 | 79 | 5.2 | 9.6 | 0.00 | 0.00 | 0.00 | 38 | 1007.9 |
| 20260503003042 | 65 | 85 | 7.0 | 11.3 | 0.00 | 0.00 | 0.00 | 38 | 1007.9 |
| 20260503001504 | 64 | 119 | 7.8 | 12.2 | 0.00 | 0.00 | 0.00 | 43 | 1008.1 |
| 20260503000042 | 66 | 149 | 5.2 | 10.4 | 0.00 | 0.00 | 0.00 | 39 | 1008.8 |
| 20260502234510 | 68 | 229 | 7.0 | 17.4 | 0.00 | 0.00 | 0.00 | 31 | 1008.0 |
| 20260502230043 | 67 | 205 | 5.2 | 12.2 | 0.00 | 0.00 | 0.00 | 35 | 1007.6 |
| 20260502224510 | 68 | 235 | 8.7 | 22.6 | 0.00 | 0.00 | 0.00 | 34 | 1007.9 |
| 20260502223041 | 70 | 217 | 3.5 | 9.6 | 0.00 | 0.00 | 0.00 | 29 | 1007.6 |
| 20260502221504 | 73 | 246 | 2.6 | 8.7 | 0.00 | 0.00 | 0.00 | 24 | 1007.9 |
| 20260502220042 | 73 | 217 | 3.5 | 8.7 | 0.00 | 0.00 | 0.00 | 25 | 1007.9 |
| 20260502214511 | 74 | 262 | 3.5 | 11.3 | 0.00 | 0.00 | 0.00 | 24 | 1008.0 |
| 20260502213054 | 74 | 194 | 4.3 | 9.6 | 0.00 | 0.00 | 0.00 | 23 | 1008.2 |
| 20260502210036 | 73 | 256 | 6.1 | 10.4 | 0.00 | 0.00 | 0.00 | 23 | 1008.5 |
| 20260502204613 | 74 | 125 | 1.7 | 7.8 | 0.00 | 0.00 | 0.00 | 23 | 1008.8 |
| 20260502203041 | 73 | 106 | 4.3 | 11.3 | 0.00 | 0.00 | 0.00 | 23 | 1008.8 |
| 20260502201506 | 73 | 201 | 2.6 | 5.2 | 0.00 | 0.00 | 0.00 | 23 | 1008.9 |
| 20260502200043 | 73 | 164 | 5.2 | 12.2 | 0.00 | 0.00 | 0.00 | 24 | 1009.1 |
| 20260502194510 | 74 | 206 | 5.2 | 14.8 | 0.00 | 0.00 | 0.00 | 23 | 1009.3 |
| 20260502193041 | 74 | 167 | 4.3 | 12.2 | 0.00 | 0.00 | 0.00 | 23 | 1009.2 |
| 20260502191504 | 73 | 187 | 5.2 | 13.0 | 0.00 | 0.00 | 0.00 | 24 | 1009.5 |
| 20260502190042 | 73 | 168 | 6.1 | 13.0 | 0.00 | 0.00 | 0.00 | 24 | 1009.7 |
| 20260502184511 | 73 | 208 | 4.3 | 9.6 | 0.00 | 0.00 | 0.00 | 24 | 1009.8 |
| 20260502183044 | 71 | 194 | 5.2 | 11.3 | 0.00 | 0.00 | 0.00 | 24 | 1010.0 |
| 20260502181506 | 68 | 335 | 3.5 | 7.0 | 0.00 | 0.00 | 0.00 | 29 | 1010.3 |
| 20260502170106 | 64 | 47 | 2.6 | 5.2 | 0.00 | 0.00 | 0.00 | 34 | 1010.6 |
| 20260502163046 | 62 | 20 | 2.6 | 5.2 | 0.00 | 0.00 | 0.00 | 37 | 1010.8 |
| 20260502161510 | 60 | 40 | 1.7 | 4.3 | 0.00 | 0.00 | 0.00 | 41 | 1010.9 |
| 20260502123047 | 51 | 210 | 0.0 | 0.9 | 0.00 | 0.00 | 0.00 | 46 | 1009.8 |
| 20260502114502 | 52 | 263 | 0.0 | 0.0 | 0.00 | 0.00 | 0.00 | 37 | 1009.9 |
| 20260502113036 | 53 | 201 | 0.9 | 3.5 | 0.00 | 0.00 | 0.00 | 36 | 1009.8 |
| 20260502111504 | 54 | 260 | 0.0 | 3.5 | 0.00 | 0.00 | 0.00 | 35 | 1009.9 |
| 20260502110040 | 53 | 265 | 0.0 | 0.0 | 0.00 | 0.00 | 0.00 | 34 | 1009.8 |
| 20260502104510 | 54 | 112 | 0.0 | 0.9 | 0.00 | 0.00 | 0.00 | 31 | 1009.8 |
| 20260502103100 | 53 | 227 | 0.0 | 3.5 | 0.00 | 0.00 | 0.00 | 32 | 1009.7 |
| 20260502091509 | 52 | 165 | 0.0 | 0.0 | 0.00 | 0.00 | 0.00 | 27 | 1009.8 |
| 20260502064510 | 56 | 168 | 0.0 | 0.0 | 0.00 | 0.00 | 0.00 | 23 | 1010.5 |
| 20260502063049 | 58 | 168 | 0.0 | 0.0 | 0.00 | 0.00 | 0.00 | 21 | 1010.4 |
| 20260502061536 | 59 | 203 | 0.0 | 0.0 | 0.00 | 0.00 | 0.00 | 20 | 1010.4 |
| 20260502060022 | 60 | 211 | 0.0 | 0.0 | 0.00 | 0.00 | 0.00 | 20 | 1010.5 |
| 20260502054509 | 60 | 204 | 0.0 | 0.0 | 0.00 | 0.00 | 0.00 | 20 | 1010.4 |
| 20260502053050 | 59 | 144 | 0.0 | 0.0 | 0.00 | 0.00 | 0.00 | 20 | 1010.5 |
| 20260502051530 | 60 | 158 | 0.0 | 0.0 | 0.00 | 0.00 | 0.00 | 20 | 1010.4 |